Location: Cheching
(60.0667°N, 164.2167°W)
Time: 13:37:04
(UTC+00:00)

STRAND 1 - Pass Details

Date: 25 January 2021
Orbit: 768 x 780 km, 98.4° (Epoch: 04 March)

Event Time Altitude Azimuth Distance (km) Brightness Sun altitude
Rises 18:28:28 0° 204° (SSW) 3,240 ? -6.8°
Reaches altitude 10° 18:31:12 10° 218° (SW) 2,319 ? -6.5°
Maximum altitude 18:35:18 24° 271° (W) 1,575 ? -6.1°
Drops below altitude 10° 18:39:26 10° 325° (NW) 2,339 ? -5.6°
Sets 18:42:13 0° 339° (NNW) 3,273 ? -5.3°
